This demonstration page uses our WeatherBlox Daily Observations layout. Learn more.

Hourly Observations for June 6, 2017

Temp ( °F °C ) Dew Point ( °F °C ) Humidity (%) Winds ( mph kmh ) Pressure ( in mb ) Visibility ( mi km ) Precip ( " mm )
12:15 am 00:15 Partly Cloudy 66 19 66 19 100 100 Calm 29.71 1006 10 16.09344 0 0
12:35 am 00:35 Partly Cloudy 66 19 66 19 100 100 WSW 3 6 29.71 1006 10 16.09344 0 0
12:55 am 00:55 Clear 64 18 64 18 100 100 W 3 6 29.71 1006 7 11.265408 0 0
1:15 am 01:15 Clear 64 18 64 18 100 100 Calm 29.71 1006 7 11.265408 0 0
1:35 am 01:35 Clear 64 18 64 18 100 100 W 3 6 29.71 1006 10 16.09344 0 0
1:55 am 01:55 Clear 64 18 64 18 100 100 WNW 7 11 29.71 1006 7 11.265408 0 0
2:15 am 02:15 Clear 64 18 64 18 100 100 W 6 9 29.71 1006 10 16.09344 0 0
2:35 am 02:35 Partly Cloudy 64 18 64 18 100 100 WNW 9 15 29.71 1006 10 16.09344 0 0
2:55 am 02:55 Partly Cloudy 66 19 64 18 94 94 WNW 5 7 29.68 1005 10 16.09344 0 0
3:15 am 03:15 Partly Cloudy 66 19 63 17 88 88 NW 6 9 29.71 1006 10 16.09344 0 0
3:35 am 03:35 Clear 66 19 63 17 88 88 WNW 3 6 29.68 1005 10 16.09344 0 0
3:55 am 03:55 Clear 64 18 63 17 94 94 NW 7 11 29.71 1006 10 16.09344 0 0
4:15 am 04:15 Clear 66 19 63 17 88 88 NW 12 19 29.71 1006 10 16.09344 0 0
4:35 am 04:35 Clear 68 20 61 16 78 78 NNW 16 26 29.71 1006 10 16.09344 0 0
4:55 am 04:55 Clear 68 20 61 16 78 78 N 9 15 29.71 1006 10 16.09344 0 0
5:15 am 05:15 Partly Cloudy 68 20 61 16 78 78 NNE 3 6 29.71 1006 10 16.09344 0 0
5:35 am 05:35 Clear 64 18 61 16 88 88 Calm 29.71 1006 10 16.09344 0 0
5:55 am 05:55 Sunny 63 17 61 16 94 94 Calm 29.74 1007 10 16.09344 0 0
6:15 am 06:15 Sunny 63 17 61 16 94 94 W 3 6 29.74 1007 10 16.09344 0 0
6:35 am 06:35 Sunny 64 18 61 16 88 88 NNW 3 6 29.74 1007 10 16.09344 0 0
6:55 am 06:55 Sunny 64 18 63 17 94 94 NNW 6 9 29.74 1007 10 16.09344 0 0
7:15 am 07:15 Sunny 64 18 61 16 88 88 NW 9 15 29.77 1008 10 16.09344 0 0
7:35 am 07:35 Sunny 68 20 61 16 78 78 NW 14 22 29.77 1008 10 16.09344 0 0
7:55 am 07:55 Sunny 68 20 57 14 69 69 NNW 22 35 29.77 1008 10 16.09344 0 0
8:15 am 08:15 Sunny 68 20 59 15 73 73 NW 16 26 29.77 1008 10 16.09344 0 0
8:35 am 08:35 Partly Cloudy 68 20 59 15 73 73 NW 15 24 29.8 1009 10 16.09344 0 0
8:55 am 08:55 Mostly Cloudy 68 20 59 15 73 73 NW 10 17 29.8 1009 10 16.09344 0 0
9:15 am 09:15 Cloudy 68 20 59 15 73 73 NW 10 17 29.8 1009 10 16.09344 0 0
9:35 am 09:35 Cloudy 68 20 57 14 69 69 NW 8 13 29.8 1009 10 16.09344 0 0
9:55 am 09:55 Mostly Cloudy 70 21 55 13 60 60 NNW 12 19 29.8 1009 10 16.09344 0 0
10:15 am 10:15 Cloudy 70 21 55 13 60 60 NNW 15 24 29.8 1009 10 16.09344 0 0
10:35 am 10:35 Mostly Cloudy 72 22 55 13 57 57 N 13 20 29.8 1009 10 16.09344 0 0
10:55 am 10:55 Cloudy 70 21 57 14 64 64 NW 8 13 29.8 1009 10 16.09344 0 0
11:15 am 11:15 Cloudy 72 22 55 13 57 57 NNW 8 13 29.8 1009 7 11.265408 0 0
11:35 am 11:35 Cloudy 72 22 55 13 57 57 NW 12 19 29.8 1009 10 16.09344 0 0
11:55 am 11:55 Mostly Cloudy 73 23 59 15 61 61 W 10 17 29.8 1009 10 16.09344 0 0
12:15 pm 12:15 Cloudy 72 22 54 12 53 53 N 12 19 29.8 1009 10 16.09344 0 0
12:35 pm 12:35 Cloudy 72 22 54 12 53 53 N 6 9 29.8 1009 10 16.09344 0 0
12:55 pm 12:55 Mostly Cloudy 73 23 57 14 57 57 WNW 14 22 29.8 1009 10 16.09344 0 0
1:15 pm 13:15 Partly Cloudy 73 23 54 12 50 50 NNW 12 19 29.77 1008 10 16.09344 0 0
1:35 pm 13:35 Partly Cloudy 77 25 55 13 47 47 NW 14 22 29.77 1008 10 16.09344 0 0
1:55 pm 13:55 Partly Cloudy 75 24 54 12 47 47 NW 10 17 29.77 1008 10 16.09344 0 0
2:15 pm 14:15 Mostly Cloudy 77 25 55 13 47 47 NW 13 20 29.77 1008 10 16.09344 0 0
2:35 pm 14:35 Mostly Cloudy 73 23 54 12 50 50 NNW 10 17 29.77 1008 10 16.09344 0 0
2:55 pm 14:55 Cloudy 77 25 55 13 47 47 WNW 9 15 29.77 1008 10 16.09344 0 0
3:15 pm 15:15 Mostly Cloudy 77 25 57 14 51 51 NW 13 20 29.77 1008 10 16.09344 0 0
3:35 pm 15:35 Cloudy 73 23 54 12 50 50 NW 15 24 29.77 1008 10 16.09344 0 0
3:55 pm 15:55 Cloudy 73 23 54 12 50 50 WNW 12 19 29.8 1009 10 16.09344 0 0
4:15 pm 16:15 Cloudy 73 23 54 12 50 50 NW 14 22 29.8 1009 10 16.09344 0 0
4:35 pm 16:35 Cloudy 73 23 55 13 53 53 WNW 15 24 29.8 1009 10 16.09344 0 0
4:55 pm 16:55 Cloudy 77 25 55 13 47 47 NW 15 24 29.8 1009 10 16.09344 0 0
5:15 pm 17:15 Mostly Cloudy 75 24 54 12 47 47 WNW 12 19 29.8 1009 10 16.09344 0 0
5:35 pm 17:35 Cloudy 72 22 55 13 57 57 W 14 22 29.8 1009 10 16.09344 0 0
5:55 pm 17:55 Partly Cloudy 73 23 55 13 53 53 WNW 13 20 29.8 1009 10 16.09344 0 0
6:15 pm 18:15 Sunny 73 23 55 13 53 53 NW 14 22 29.8 1009 10 16.09344 0 0
6:35 pm 18:35 Sunny 73 23 54 12 50 50 NW 10 17 29.8 1009 10 16.09344 0 0
6:55 pm 18:55 Sunny 73 23 54 12 50 50 NW 13 20 29.8 1009 10 16.09344 0 0
7:15 pm 19:15 Sunny 72 22 54 12 53 53 NW 16 26 29.8 1009 10 16.09344 0 0
7:35 pm 19:35 Sunny 72 22 54 12 53 53 NW 12 19 29.8 1009 10 16.09344 0 0
7:55 pm 19:55 Sunny 70 21 54 12 57 57 NW 12 19 29.8 1009 10 16.09344 0 0
8:15 pm 20:15 Sunny 70 21 54 12 57 57 NW 5 7 29.83 1010 10 16.09344 0 0
8:35 pm 20:35 Clear 68 20 54 12 60 60 WNW 7 11 29.83 1010 10 16.09344 0 0
8:55 pm 20:55 Clear 66 19 54 12 64 64 NW 8 13 29.83 1010 10 16.09344 0 0
9:15 pm 21:15 Clear 66 19 54 12 64 64 NW 9 15 29.83 1010 10 16.09344 0 0
9:35 pm 21:35 Clear 64 18 54 12 68 68 NW 9 15 29.83 1010 10 16.09344 0 0
9:55 pm 21:55 Clear 63 17 54 12 73 73 WNW 8 13 29.85 1011 10 16.09344 0 0
10:15 pm 22:15 Clear 63 17 54 12 73 73 W 6 9 29.85 1011 10 16.09344 0 0
10:35 pm 22:35 Clear 63 17 54 12 73 73 WNW 5 7 29.88 1012 10 16.09344 0 0
10:55 pm 22:55 Clear 61 16 54 12 77 77 WNW 7 11 29.88 1012 10 16.09344 0 0
11:15 pm 23:15 Clear 61 16 54 12 77 77 NW 7 11 29.85 1011 10 16.09344 0 0
11:35 pm 23:35 Clear 63 17 54 12 73 73 NNW 6 9 29.85 1011 10 16.09344 0 0
11:55 pm 23:55 Clear 63 17 54 12 73 73 N 7 11 29.88 1012 10 16.09344 0 0

Powered by AerisWeather